Hourly Data Report for June 12, 2021

OTTAWA INTL A
ONTARIO
Current Station Operator: NAVCAN

45°19'00.000" N
75°40'00.000" W
114.90 m
6106001
71628
YOW

Download Data

Hourly Data (June 2021)
Hourly Data Report for June 12, 2021
TIME
LST
Temp Definition
°C
Dew Point Definition
°C
Rel Hum Definition
%
Precip. Amount Definition
mm

Wind Dir Definition
10's deg

Wind Spd Definition
km/h
Visibility Definition
km
Stn Press Definition
kPa
Hmdx Definition


Wind Chill Definition


Weather Definition


00:00 15.4 11.8 79   29 12 24.1 99.89     LegendNANA
01:00 12.3 9.6 84   26 9 24.1 99.81     Clear
02:00 13.7 10.9 83   32 12 24.1 99.76     LegendNANA
03:00 13.3 11.3 88   34 11 24.1 99.76     LegendNANA
04:00 12.1 10.2 88   32 10 24.1 99.80     Mainly Clear
05:00 14.6 9.5 71   35 14 24.1 99.82     LegendNANA
06:00 16.4 8.5 59   2 12 24.1 99.85     LegendNANA
07:00 18.7 6.2 44   2 13 24.1 99.91     Mostly Cloudy
08:00 21.1 5.0 35   3 16 24.1 99.94     LegendNANA
09:00 22.5 6.1 34   4 9 24.1 99.91     LegendNANA
10:00 23.5 3.7 27   34 13 24.1 99.89     Mostly Cloudy
11:00 24.8 4.0 26   36 11 24.1 99.84     LegendNANA
12:00 24.8 0.6 20   32 10 24.1 99.80     LegendNANA
13:00 25.6 0.0 18   2 8 24.1 99.76     Mostly Cloudy
14:00 26.6 -1.3 16   27 16 24.1 99.73     LegendNANA
15:00 26.7 1.8 19   30 17 24.1 99.71 25   LegendNANA
16:00 26.6 1.5 19   31 14 24.1 99.68 25   Mostly Cloudy
17:00 25.4 1.9 21   26 16 24.1 99.65     LegendNANA
18:00 24.8 3.5 25   28 14 24.1 99.67     LegendNANA
19:00 23.8 4.4 28   29 12 24.1 99.65     Mostly Cloudy
20:00 21.7 5.1 33   30 11 24.1 99.66     LegendNANA
21:00 21.1 5.7 36   32 10 24.1 99.69     LegendNANA
22:00 19.1 6.1 42   34 4 24.1 99.71     Mostly Cloudy
23:00 15.1 7.6 61   22 6 24.1 99.71     LegendNANA

Notes on Data Quality.

Legend

  • E = Estimated
  • M = Missing
  • NA = Not Available*
  • [empty] = Indicates an unobserved value
Date modified: